Weather History for Asheboro, NC

Change the Weather History Date:

Tuesday, January 22, 2013

  Actual Average Record
Temperature  
Mean Temperature 35 °F -  
Max Temperature 42 °F 47 °F 74 °F (1937)
Min Temperature 28 °F 29 °F 5 °F (1985)
Degree Days  
Heating Degree Days 30    
Moisture  
Dew Point 3 °F    
Average Humidity 29    
Maximum Humidity 44    
Minimum Humidity 15    
Precipitation  
Precipitation 0.00 in - - ()
Sea Level Pressure  
Sea Level Pressure 30.18 in    
Wind  
Wind Speed 5 mph (NW)    
Max Wind Speed 13 mph    
Max Gust Speed 21 mph    
Visibility 10 miles    
Events      
Averages and records for this station are not official NWS values.
T = Trace of Precipitation, MM = Missing Value Source: NWS Daily Summary

Daily Weather History Graph

Daily Weather History Graph

Search for Another Location

Airport:

Trip Planner

Search our weather history database for the weather conditions in past years. The results will help you decide how hot, cold, wet, or windy it might be!

Date:

Astronomy

Jan. 22, 2013 Rise Set
Actual Time 7:25 AM EST 5:37 PM EST
Civil Twilight 6:58 AM EST 6:04 PM EST
Nautical Twilight 6:27 AM EST 6:35 PM EST
Astronomical Twilight 5:57 AM EST 7:05 PM EST
Moon 2:00 PM EST 3:44 AM EST
Length of Visible Light 11h 06m
Length of Day
10h 11m
Waxing Gibbous, 82% of the Moon is Illuminated
Jan 22
Waxing Gibbous
Jan 26
Full
Feb 3
Last Quarter
Feb 10
New
Feb 17
First Quarter

Hourly Weather History & Observations

Time (EST) Temp. Windchill Dew Point Humidity Pressure Visibility Wind Dir Wind Speed Gust Speed Precip Events Conditions
12:17 AM 42.8 °F 40.1 °F 14.0 °F 31% 30.01 in 10.0 mi WSW 4.6 mph - N/A   Clear
12:37 AM 42.8 °F 39.3 °F 14.0 °F 31% 30.01 in 10.0 mi West 5.8 mph - N/A   Clear
12:57 AM 41.0 °F 37.1 °F 12.2 °F 31% 30.01 in 10.0 mi West 5.8 mph - N/A   Clear
1:17 AM 39.2 °F 37.0 °F 12.2 °F 33% 30.01 in 10.0 mi NW 3.5 mph - N/A   Clear
1:38 AM 39.2 °F 35.0 °F 14.0 °F 36% 30.02 in 10.0 mi NW 5.8 mph - N/A   Clear
1:58 AM 37.4 °F 33.8 °F 10.4 °F 33% 30.03 in 10.0 mi NW 4.6 mph - N/A   Clear
2:19 AM 37.4 °F 32.8 °F 8.6 °F 30% 30.04 in 10.0 mi NW 5.8 mph - N/A   Clear
2:39 AM 37.4 °F 33.8 °F 8.6 °F 30% 30.04 in 10.0 mi NW 4.6 mph - N/A   Clear
2:57 AM 35.6 °F 30.7 °F 6.8 °F 30% 30.04 in 10.0 mi NW 5.8 mph - N/A   Clear
3:17 AM 35.6 °F 32.8 °F 6.8 °F 30% 30.05 in 10.0 mi WNW 3.5 mph - N/A   Clear
3:37 AM 35.6 °F - 6.8 °F 30% 30.05 in 10.0 mi Calm Calm - N/A   Clear
3:57 AM 33.8 °F 29.6 °F 8.6 °F 35% 30.07 in 10.0 mi NNW 4.6 mph - N/A   Clear
4:20 AM 33.8 °F 29.6 °F 6.8 °F 32% 30.07 in 10.0 mi NW 4.6 mph - N/A   Clear
4:37 AM 33.8 °F 28.6 °F 6.8 °F 32% 30.08 in 10.0 mi NW 5.8 mph - N/A   Clear
4:57 AM 33.8 °F 29.6 °F 5.0 °F 30% 30.09 in 10.0 mi NW 4.6 mph - N/A   Clear
5:17 AM 32.0 °F 27.5 °F 5.0 °F 32% 30.10 in 10.0 mi NNW 4.6 mph - N/A   Clear
5:37 AM 30.2 °F 26.7 °F 5.0 °F 34% 30.11 in 10.0 mi NNW 3.5 mph - N/A   Clear
5:57 AM 30.2 °F 26.7 °F 5.0 °F 34% 30.12 in 10.0 mi North 3.5 mph - N/A   Clear
6:17 AM 30.2 °F 21.9 °F 6.8 °F 37% 30.13 in 10.0 mi North 9.2 mph - N/A   Clear
6:37 AM 30.2 °F 24.3 °F 5.0 °F 34% 30.14 in 10.0 mi NNW 5.8 mph - N/A   Clear
6:57 AM 30.2 °F 25.4 °F 6.8 °F 37% 30.16 in 10.0 mi NNW 4.6 mph - N/A   Clear
7:17 AM 28.4 °F 22.2 °F 6.8 °F 40% 30.17 in 10.0 mi North 5.8 mph - N/A   Clear
7:37 AM 28.4 °F 20.4 °F 6.8 °F 40% 30.17 in 10.0 mi North 8.1 mph - N/A   Clear
7:57 AM 28.4 °F 19.7 °F 6.8 °F 40% 30.17 in 10.0 mi North 9.2 mph - N/A   Clear
8:17 AM 28.4 °F 21.2 °F 8.6 °F 43% 30.18 in 10.0 mi North 6.9 mph - N/A   Clear
8:57 AM 30.2 °F 20.8 °F 5.0 °F 34% 30.20 in 10.0 mi North 11.5 mph 18.4 mph N/A   Clear
9:17 AM 30.2 °F 22.6 °F 5.0 °F 34% 30.21 in 10.0 mi NNW 8.1 mph - N/A   Clear
9:37 AM 30.2 °F 21.9 °F 3.2 °F 32% 30.23 in 10.0 mi NNW 9.2 mph 16.1 mph N/A   Clear
9:57 AM 32.0 °F 24.2 °F 3.2 °F 30% 30.24 in 10.0 mi NNW 9.2 mph - N/A   Clear
10:17 AM 32.0 °F 23.0 °F 1.4 °F 27% 30.25 in 10.0 mi NW 11.5 mph - N/A   Clear
10:57 AM 32.0 °F 24.8 °F -0.4 °F 25% 30.25 in 10.0 mi North 8.1 mph - N/A   Clear
11:17 AM 33.8 °F 26.4 °F 1.4 °F 25% 30.25 in 10.0 mi NW 9.2 mph - N/A   Clear
11:37 AM 33.8 °F 27.7 °F -0.4 °F 23% 30.24 in 10.0 mi WNW 6.9 mph - N/A   Clear
11:57 AM 33.8 °F 28.6 °F -0.4 °F 23% 30.24 in 10.0 mi NW 5.8 mph - N/A   Clear
12:17 PM 33.8 °F 28.6 °F -0.4 °F 23% 30.22 in 10.0 mi NW 5.8 mph - N/A   Clear
12:37 PM 35.6 °F 29.9 °F -0.4 °F 22% 30.21 in 10.0 mi NNW 6.9 mph - N/A   Clear
1:17 PM 35.6 °F 31.7 °F -0.4 °F 22% 30.20 in 10.0 mi North 4.6 mph - N/A   Clear
1:57 PM 35.6 °F - -0.4 °F 22% 30.19 in 10.0 mi Calm Calm - N/A   Clear
2:17 PM 35.6 °F 29.2 °F -0.4 °F 22% 30.19 in 10.0 mi WSW 8.1 mph - N/A   Clear
2:37 PM 37.4 °F 33.8 °F -0.4 °F 20% 30.18 in 10.0 mi West 4.6 mph - N/A   Clear
2:57 PM 39.2 °F 32.5 °F -2.2 °F 17% 30.18 in 10.0 mi WSW 10.4 mph 17.3 mph N/A   Clear
3:17 PM 37.4 °F 29.3 °F -5.8 °F 16% 30.20 in 10.0 mi WSW 12.7 mph 20.7 mph N/A   Clear
3:40 PM 37.4 °F 31.4 °F -7.6 °F 15% 30.20 in 10.0 mi WNW 8.1 mph 20.7 mph N/A   Clear
3:57 PM 37.4 °F 30.3 °F -7.6 °F 15% 30.20 in 10.0 mi WNW 10.4 mph 18.4 mph N/A   Clear
4:17 PM 37.4 °F 30.3 °F -7.6 °F 15% 30.20 in 10.0 mi West 10.4 mph - N/A   Clear
4:37 PM 37.4 °F 32.8 °F -7.6 °F 15% 30.21 in 10.0 mi West 5.8 mph - N/A   Clear
5:01 PM 37.4 °F 33.8 °F -7.6 °F 15% 30.21 in 10.0 mi NW 4.6 mph - N/A   Clear
5:17 PM 37.4 °F - -7.6 °F 15% 30.20 in 10.0 mi Calm Calm - N/A   Clear
5:37 PM 35.6 °F - -5.8 °F 17% 30.21 in 10.0 mi Calm Calm - N/A   Clear
5:57 PM 35.6 °F - -5.8 °F 17% 30.21 in 10.0 mi Calm Calm - N/A   Clear
6:17 PM 32.0 °F - 3.2 °F 30% 30.22 in 10.0 mi Calm Calm - N/A   Clear
6:37 PM 30.2 °F - 1.4 °F 29% 30.24 in 10.0 mi Calm Calm - N/A   Clear
6:57 PM 30.2 °F - 10.4 °F 44% 30.24 in 10.0 mi Calm Calm - N/A   Clear
7:17 PM 28.4 °F - 6.8 °F 40% 30.24 in 10.0 mi Calm Calm - N/A   Clear
7:37 PM 28.4 °F - 5.0 °F 37% 30.24 in 10.0 mi Calm Calm - N/A   Clear
7:57 PM 28.4 °F - 3.2 °F 34% 30.24 in 10.0 mi Calm Calm - N/A   Clear
8:17 PM 28.4 °F - 5.0 °F 37% 30.24 in 10.0 mi Calm Calm - N/A   Clear
8:37 PM 30.2 °F 26.7 °F 1.4 °F 29% 30.24 in 10.0 mi North 3.5 mph - N/A   Mostly Cloudy
8:57 PM 30.2 °F - 1.4 °F 29% 30.25 in 10.0 mi Calm Calm - N/A   Overcast
9:17 PM 30.2 °F - 3.2 °F 32% 30.25 in 10.0 mi Calm Calm - N/A   Overcast
9:41 PM 30.2 °F - -0.4 °F 27% 30.26 in 10.0 mi Calm Calm - N/A   Overcast
9:57 PM 30.2 °F - 3.2 °F 32% 30.27 in 10.0 mi Calm Calm - N/A   Overcast
10:20 PM 30.2 °F - 3.2 °F 32% 30.28 in 10.0 mi Calm Calm - N/A   Overcast
10:37 PM 30.2 °F - 3.2 °F 32% 30.29 in 10.0 mi Calm Calm - N/A   Overcast
10:57 PM 30.2 °F - 3.2 °F 32% 30.28 in 10.0 mi Calm Calm - N/A   Overcast
11:17 PM 30.2 °F - 1.4 °F 29% 30.28 in 10.0 mi Calm Calm - N/A   Overcast
11:37 PM 30.2 °F - 1.4 °F 29% 30.28 in 10.0 mi Calm Calm - N/A   Overcast
11:57 PM 30.2 °F - 1.4 °F 29% 30.28 in 10.0 mi Calm Calm - N/A   Overcast